カタログに戻る

STARLINK-11343

運用中通信VLEO
NORAD 62017·PAYLOAD·🇺🇸 United States

打ち上げ Nov 18, 2024 から Vandenberg Space Force Base

Loading…

次のパス (今後24時間)

TLE

最新Source: CelesTrak SupGP

元期: Sep 15, 2026, 03:30 UTC

1 62017C 24213K   26258.14631944 -.00038556  00000+0 -31749-3 0  2586
2 62017  53.1571 187.4230 0001201  83.8096 144.7621 15.69736430    13

AllMySatでSTARLINK-11343をリアルタイム追跡

Download on the App Store